Showing default

XM-3, 28626

Orbit data source: Space-Track

XM-3, 28626 is a payload satellite owned by XM Radio (US) in GEO that was launched on Tue, 01 Mar 2005 UTC via a ZENIT-3SL launch vehicle from the Sea Launch (SEAL). Payload-class satellites include a variety of spacecraft equipped with specific instruments for various scientific and technological missions. These include communications satellites like Starlink; space stations such as the ISS; scientific satellites like the Hubble; Earth observation satellites from companies like Planet Labs, Umbra, and HawkEye 360; GPS; miniature CubeSats for education and research; and military/defense satellites.

Loading next visibility...
Identifier
28626, 2005-008A
Orbit
GEO
Country
Flag of USUS
Related business
Manufacturer
Boeing/ES
Mission
Operational Commercial Communications
Bus & Motor
BSS-702HP, R-4D-11-300
Mass
4,682 kg wet, ~2,500 kg dry
Launch date (UTC)
2005-03-01 (21 years ago)
Launch vehicle
ZENIT-3SL
Launch site
Sea Launch (SEAL)
Object type
Payload
Rocket body
Debris
Shape & HBR
Box + 2 Pan, 20.2 m
Radar Cross Section
61.334 m², Large (>1 m²)

Expand to show TLE details & history
Last TLE update: 2 days ago

TLE from 2 days ago
0 XM-3
1 28626U 05008A   25302.46433855 -.00000274  00000-0  00000+0 0  9990
2 28626   0.0516  71.2477 0001929 267.1328 162.8052  1.00503152 75751
Epoch: 2025-10-29T11:08Z
TLE epoch observation values (Epoch: 2025-10-29T11:08:38.850Z)
Latitude
0.03071°
Longitude
-64.04199°
Altitude
35,729.08 km
Speed
3.077 km/s
True Right ascension
09h 24m 37s
True Declination
0° 01' 50"
Sunlit
Object was in daylight at epoch
Visualization orbit readout
Latitude
Unknown
Longitude
Unknown
Altitude
Unknown
Speed
Unknown
Apparent Right ascension
Unknown
Apparent Declination
Unknown
Sunlit
N/A
Visualization observer readout
Local Sidereal Time
09:35:00
Azimuth
Unknown
Elevation
Unknown
Doppler factor
Unknown
Orbital elements
Apogee altitude
35,731.052 km
Perigee altitude
35,714.81 km
Semi-major axis
42,101.068 km
Eccentricity
0.00019
Inclination
0.0516°
RAAN
71.2477°
Arg. of periapsis
267.1328°
True anomaly
162.81173°
Mean anomaly
162.8052°
Eccentric anomaly
162.80847°
Mean motion
0.25125 °/min
Orbital period
1,432.84 mins
BSTAR
0
Loading maneuver chart data...
Computing Atmospheric mass density...
Loading historical data...
Loading historical data...
Loading historical data...
Loading historical data...
Loading historical data...
Loading historical data...
Loading historical data...
Other satellites on launch #8 in the year 2005 (2005-03-01 UTC)

Documentation

Showing up to 5 results
|